Location: Clanezzo
(45.7500°N, 9.6000°E)
Time: 17:41:37
(UTC+00:00)

STARS - Pass Details

Date: 08 July 2022
Orbit: 620 x 637 km, 98.2° (Epoch: 18 August)

Event Time Altitude Azimuth Distance (km) Brightness Sun altitude
Rises 21:43:26 0° 19° (NNE) 2,926 ? -17.9°
Reaches altitude 10° 21:45:43 10° 25° (NNE) 2,011 ? -18.1°
Maximum altitude 21:49:56 47° 99° (E) 835 ? -18.4°
Enters shadow 21:50:57 39° 138° (SE) 940 ? -18.5°
